Flag for Congo Weather past 2 weeks in Brazzaville, Congo

Now
84 °F

Passing clouds.


Feels Like: 91 °F
Forecast: 77 / 89 °F
Wind: 3 mph from Northwest

Location: Brazzaville / Maya-Maya

Current Time: Jan 26, 2015 at 6:35:54 PM

Latest Report: Jan 26, 2015 at 6:00 PM


Visibility: N/A

Pressure: 29.83 "Hg

Humidity: 70%

Dew point: 73 °F

Location of BrazzavilleLocation

Historic Weather in Brazzaville — Graph

°F

Brazzaville temperature yesterday

Maximum temperature yesterday: 81 °F (at 12:00 AM)
Minimum temperature yesterday: 70 °F (at 12:55 PM)
Average temperature yesterday: 74 °F

Past Weeks' High & Low Weather Summary

 TemperatureHumidityPressure
High91 °F (Jan 20, 3:00 PM)94% (Jan 11, 10:00 PM)30.04 "Hg (Jan 11, 10:00 PM)
Low68 °F (Jan 17, 3:00 AM)48% (Jan 13, 11:00 AM)29.77 "Hg (Jan 20, 5:00 PM)
Average79 °F78%29.91 "Hg
* Reported Jan 11 5:00 PM — Jan 26 5:00 PM, Brazzaville, Weather by CustomWeather, © 2014

Note: Actual official high and low records may vary slightly from our data, if they occured in-between our weather recording intervals... More about our weather records

Advertising

Brazzaville weather history for previous 24 hours

 ConditionsComfort  
Time TempWeatherWind HumidityBarometerVisibility
5:00 PM
Jan 26
86 °FPassing clouds.6 mph62%29.80 "HgN/A
4:00 PM88 °FScattered clouds.7 mph62%29.83 "HgN/A
3:00 PM86 °FScattered clouds.8 mph62%29.83 "HgN/A
2:00 PM86 °FPassing clouds.8 mph62%29.86 "HgN/A
1:00 PM82 °FPassing clouds.5 mph70%29.89 "HgN/A
12:00 PM81 °FPassing clouds.5 mph74%29.92 "HgN/A
10:00 AM72 °FPassing clouds.3 mph94%29.98 "Hg5 mi
9:00 AM72 °FPassing clouds.3 mph88%29.98 "Hg5 mi
8:00 AM70 °FScattered clouds.2 mph94%29.98 "HgN/A
7:00 AM70 °FScattered clouds.3 mph94%29.95 "Hg5 mi
6:00 AM70 °FClear.3 mph94%29.92 "Hg5 mi
5:00 AM70 °FClear.5 mph94%29.89 "Hg5 mi
4:00 AM70 °FClear.5 mph94%29.89 "Hg5 mi
3:00 AM70 °FClear.2 mph94%29.92 "Hg5 mi
2:00 AM70 °FClear.5 mph94%29.89 "Hg10 mi
1:00 AM70 °FClear.2 mph94%29.92 "Hg10 mi
12:00 AM70 °FClear.2 mph94%29.92 "Hg5 mi
11:00 PM
Jan 25
72 °FClear.No wind88%29.92 "Hg5 mi
10:00 PM70 °FClear.2 mph94%29.89 "Hg5 mi
9:00 PM72 °FClear.2 mph94%29.89 "Hg5 mi
8:00 PM72 °FClear.2 mph94%29.86 "Hg5 mi
7:00 PM72 °FPassing clouds.3 mph94%29.83 "Hg5 mi
6:00 PM72 °FPassing clouds.1 mph94%29.83 "HgN/A
Weather by CustomWeather, © 2014

See weather overviewHow to use our weather pages